CEST,Max TemperatureF,Mean TemperatureF,Min TemperatureF,Max Dew PointF,MeanDew PointF,Min DewpointF,Max Humidity, Mean Humidity, Min Humidity, Max Sea Level PressureIn, Mean Sea Level PressureIn, Min Sea Level PressureIn, Max VisibilityMiles, Mean VisibilityMiles, Min VisibilityMiles, Max Wind SpeedMPH, Mean Wind SpeedMPH, Max Gust SpeedMPH,PrecipitationIn, CloudCover, Events, WindDirDegrees
2013-4-1,42,36,30,31,27,23,86,68,41,29.91,29.81,29.71,16,8,4,13,8,,0.00,5,,330
2013-4-2,44,38,33,36,30,27,93,72,44,29.90,29.82,29.74,16,8,4,16,9,,0.16,8,Rain,48
2013-4-3,36,34,33,36,32,30,100,88,80,29.85,29.76,29.68,9,4,2,16,9,,0.01,7,Rain-Snow,333
2013-4-4,45,40,34,34,31,28,87,73,52,29.87,29.82,29.77,12,7,6,16,11,,0.00,6,,338
2013-4-5,46,40,34,41,37,32,100,86,68,29.86,29.72,29.65,6,5,2,12,6,,0.03,8,Rain,68
2013-4-6,45,40,36,38,34,32,100,74,49,30.06,29.91,29.74,12,6,4,16,9,,0.00,7,Rain,348
2013-4-7,45,41,37,33,31,27,81,66,45,30.10,30.05,30.01,12,8,6,17,8,,0.00,6,,14
2013-4-8,50,41,32,36,30,25,81,60,37,30.03,29.87,29.77,16,9,6,13,8,,0.00,2,,113
2013-4-9,57,46,35,43,37,34,93,68,31,29.79,29.74,29.71,11,6,5,12,6,,0.00,3,,132
2013-4-10,59,49,39,45,40,36,100,70,32,29.93,29.81,29.74,19,6,2,23,9,,0.02,5,Fog-Rain,345
2013-4-11,64,49,34,46,40,34,100,68,33,29.95,29.85,29.74,19,12,6,18,6,31,0.00,1,,164
2013-4-12,64,54,45,48,45,43,94,73,39,29.89,29.73,29.62,19,9,6,22,8,,0.16,6,Rain,271
2013-4-13,63,52,41,45,39,32,100,59,22,30.25,30.05,29.86,19,12,6,20,8,31,0.02,4,Rain,290
2013-4-14,65,56,47,39,37,32,71,46,18,30.38,30.33,30.24,19,15,12,16,7,22,0.00,,,339
2013-4-15,65,52,40,41,38,33,87,57,20,30.38,30.31,30.24,19,15,12,10,4,,0.00,,,102
2013-4-16,67,52,37,42,37,34,93,53,19,30.30,30.25,30.18,19,16,12,14,6,,0.00,,,134
2013-4-17,72,58,45,52,45,39,82,59,30,30.27,30.22,30.18,12,12,9,8,4,,0.00,,,68
2013-4-18,75,60,46,52,48,43,87,60,28,30.22,30.12,30.04,16,12,9,9,6,,0.00,,,105
2013-4-19,68,59,50,57,51,43,88,73,45,30.10,30.07,30.04,16,8,6,17,5,,0.00,4,,352
2013-4-20,70,60,50,50,49,46,94,68,39,30.15,30.11,30.06,9,6,4,13,8,,0.00,1,,320
2013-4-21,72,61,50,49,46,44,82,58,26,30.15,30.06,29.95,12,7,6,8,4,,0.00,1,,69
2013-4-22,73,60,48,47,44,39,87,53,21,30.00,29.97,29.89,16,12,7,9,5,,0.00,,,79
2013-4-23,73,62,51,52,49,46,82,57,29,30.22,30.10,30.01,12,8,5,13,6,,0.00,3,,275
2013-4-24,74,64,55,50,46,41,77,49,22,30.35,30.28,30.21,16,12,9,13,6,,0.00,,,279
2013-4-25,78,63,48,54,48,43,88,54,20,30.29,30.23,30.15,19,14,9,9,3,,0.00,,,342
2013-4-26,82,66,50,54,48,44,82,53,18,30.17,29.93,29.65,19,14,12,14,5,,0.00,,,132
2013-4-27,77,70,63,55,49,44,64,46,33,29.68,29.64,29.61,16,12,6,25,15,33,0.00,7,,207
2013-4-28,73,65,57,55,53,48,82,62,34,29.98,29.81,29.65,19,9,6,17,10,,0.00,3,Rain,288
2013-4-29,79,62,46,58,52,46,100,69,30,30.10,30.00,29.96,19,11,6,16,5,,0.00,1,Fog,307
2013-4-30,77,64,52,59,54,48,88,64,33,30.12,30.05,29.94,12,8,6,16,6,21,0.00,,,171